Weather History for Chester, SC

Change the Weather History Date:

Monday, February 18, 2013

  Actual Average (KUZA) Record (KUZA)
Temperature  
Mean Temperature 40 °F -  
Max Temperature 55 °F 53 °F 75 °F (2011)
Min Temperature 26 °F 34 °F 6 °F (1958)
Degree Days  
Heating Degree Days 24    
Moisture  
Dew Point 24 °F    
Average Humidity 54    
Maximum Humidity 80    
Minimum Humidity 30    
Precipitation  
Precipitation 0.00 in - - ()
Sea Level Pressure  
Sea Level Pressure 30.31 in    
Wind  
Wind Speed 4 mph (SSW)    
Max Wind Speed 13 mph    
Max Gust Speed -    
Visibility 10 miles    
Events      
Averages and records for this station are not official NWS values.
T = Trace of Precipitation, MM = Missing Value Source: NWS Daily Summary

Daily Weather History Graph

Daily Weather History Graph

Search for Another Location

Airport:

Trip Planner

Search our weather history database for the weather conditions in past years. The results will help you decide how hot, cold, wet, or windy it might be!

Date:

Astronomy

Feb. 18, 2013 Rise Set
Actual Time 7:06 AM EST 6:10 PM EST
Civil Twilight 6:41 AM EST 6:36 PM EST
Nautical Twilight 6:11 AM EST 7:06 PM EST
Astronomical Twilight 5:42 AM EST 7:35 PM EST
Moon 12:02 PM EST 1:38 AM EST
Length of Visible Light 11h 55m
Length of Day
11h 03m
First Quarter, 58% of the Moon is Illuminated
Feb 18
First Quarter
Feb 25
Full
Mar 4
Last Quarter
Mar 11
New
Mar 19
First Quarter

Hourly Weather History & Observations

Time (EST) Temp. Windchill Dew Point Humidity Pressure Visibility Wind Dir Wind Speed Gust Speed Precip Events Conditions
12:15 AM 32.0 °F 28.7 °F 17.6 °F 55% 30.27 in 10.0 mi West 3.5 mph - N/A   Clear
12:35 AM 28.4 °F 24.6 °F 19.4 °F 69% 30.27 in 10.0 mi SW 3.5 mph - N/A   Clear
12:55 AM 28.4 °F 23.3 °F 19.4 °F 69% 30.28 in 10.0 mi SW 4.6 mph - N/A   Clear
1:15 AM 30.2 °F 25.4 °F 19.4 °F 64% 30.29 in 10.0 mi SW 4.6 mph - N/A   Clear
1:55 AM 28.4 °F 24.6 °F 19.4 °F 69% 30.30 in 10.0 mi SW 3.5 mph - N/A   Clear
2:15 AM 28.4 °F 24.6 °F 19.4 °F 69% 30.30 in 10.0 mi SW 3.5 mph - N/A   Clear
2:55 AM 30.2 °F - 19.4 °F 64% 30.31 in 10.0 mi Calm Calm - N/A   Clear
3:15 AM 28.4 °F - 21.2 °F 74% 30.30 in 10.0 mi Calm Calm - N/A   Clear
3:35 AM 28.4 °F 23.3 °F 21.2 °F 74% 30.30 in 10.0 mi SW 4.6 mph - N/A   Clear
3:55 AM 26.6 °F 22.6 °F 21.2 °F 80% 30.31 in 10.0 mi SW 3.5 mph - N/A   Clear
4:15 AM 26.6 °F - 21.2 °F 80% 30.31 in 10.0 mi Calm Calm - N/A   Clear
4:35 AM 26.6 °F - 21.2 °F 80% 30.32 in 10.0 mi Calm Calm - N/A   Clear
4:55 AM 26.6 °F - 19.4 °F 74% 30.33 in 10.0 mi Calm Calm - N/A   Clear
5:15 AM 28.4 °F 24.6 °F 19.4 °F 69% 30.34 in 10.0 mi SW 3.5 mph - N/A   Clear
5:35 AM 26.6 °F - 21.2 °F 80% 30.34 in 10.0 mi Calm Calm - N/A   Clear
5:55 AM 26.6 °F - 21.2 °F 80% 30.35 in 10.0 mi Calm Calm - N/A   Clear
6:15 AM 26.6 °F - 21.2 °F 80% 30.35 in 10.0 mi Calm Calm - N/A   Clear
6:35 AM 26.6 °F - 21.2 °F 80% 30.35 in 10.0 mi Calm Calm - N/A   Clear
8:15 AM 32.0 °F 28.7 °F 23.0 °F 69% 30.38 in 10.0 mi SSW 3.5 mph - N/A   Clear
8:35 AM 33.8 °F 30.8 °F 19.4 °F 56% 30.38 in 10.0 mi SW 3.5 mph - N/A   Clear
9:15 AM 37.4 °F 34.9 °F 21.2 °F 52% 30.39 in 10.0 mi SSW 3.5 mph - N/A   Clear
9:35 AM 39.2 °F 37.0 °F 21.2 °F 49% 30.39 in 10.0 mi South 3.5 mph - N/A   Clear
9:55 AM 41.0 °F 37.1 °F 21.2 °F 45% 30.39 in 10.0 mi South 5.8 mph - N/A   Clear
10:15 AM 42.8 °F 41.1 °F 21.2 °F 42% 30.39 in 10.0 mi SSW 3.5 mph - N/A   Clear
10:35 AM 44.6 °F 41.4 °F 21.2 °F 39% 30.39 in 10.0 mi SSE 5.8 mph - N/A   Clear
10:55 AM 46.4 °F - 21.2 °F 37% 30.39 in 10.0 mi Calm Calm - N/A   Clear
11:15 AM 46.4 °F 45.2 °F 23.0 °F 40% 30.39 in 10.0 mi WSW 3.5 mph - N/A   Clear
11:35 AM 48.2 °F - 24.8 °F 40% 30.38 in 10.0 mi Calm Calm - N/A   Clear
11:55 AM 50.0 °F - 23.0 °F 35% 30.37 in 10.0 mi SSW 4.6 mph - N/A   Clear
12:15 PM 50.0 °F - 23.0 °F 35% 30.36 in 10.0 mi WSW 3.5 mph - N/A   Clear
12:35 PM 51.8 °F - 23.0 °F 33% 30.35 in 10.0 mi West 8.1 mph - N/A   Clear
12:55 PM 51.8 °F - 23.0 °F 33% 30.34 in 10.0 mi WSW 4.6 mph - N/A   Clear
1:15 PM 53.6 °F - 23.0 °F 30% 30.32 in 10.0 mi SSW 6.9 mph - N/A   Clear
1:55 PM 53.6 °F - 24.8 °F 33% 30.31 in 10.0 mi SW 6.9 mph - N/A   Clear
2:35 PM 53.6 °F - 26.6 °F 35% 30.30 in 10.0 mi South 9.2 mph - N/A   Clear
2:55 PM 55.4 °F - 26.6 °F 33% 30.29 in 10.0 mi South 4.6 mph - N/A   Clear
3:15 PM 55.4 °F - 26.6 °F 33% 30.28 in 10.0 mi South 8.1 mph - N/A   Clear
3:35 PM 55.4 °F - 26.6 °F 33% 30.28 in 10.0 mi South 9.2 mph - N/A   Clear
3:55 PM 55.4 °F - 26.6 °F 33% 30.27 in 10.0 mi SSE 10.4 mph - N/A   Clear
4:15 PM 55.4 °F - 26.6 °F 33% 30.27 in 10.0 mi SSE 9.2 mph - N/A   Clear
4:35 PM 55.4 °F - 26.6 °F 33% 30.27 in 10.0 mi SSE 9.2 mph - N/A   Clear
4:55 PM 53.6 °F - 26.6 °F 35% 30.27 in 10.0 mi South 12.7 mph - N/A   Clear
5:15 PM 53.6 °F - 28.4 °F 38% 30.27 in 10.0 mi South 8.1 mph - N/A   Clear
5:35 PM 51.8 °F - 28.4 °F 41% 30.27 in 10.0 mi South 5.8 mph - N/A   Clear
5:55 PM 51.8 °F - 28.4 °F 41% 30.27 in 10.0 mi South 5.8 mph - N/A   Clear
6:15 PM 50.0 °F - 28.4 °F 43% 30.27 in 10.0 mi South 5.8 mph - N/A   Clear
6:55 PM 46.4 °F 45.2 °F 30.2 °F 53% 30.27 in 10.0 mi SSE 3.5 mph - N/A   Clear
7:15 PM 46.4 °F 43.5 °F 30.2 °F 53% 30.27 in 10.0 mi SSE 5.8 mph - N/A   Clear
7:55 PM 46.4 °F 43.5 °F 30.2 °F 53% 30.27 in 10.0 mi SSE 5.8 mph - N/A   Clear
8:15 PM 44.6 °F 40.7 °F 30.2 °F 57% 30.26 in 10.0 mi SSE 6.9 mph - N/A   Clear
8:35 PM 44.6 °F 40.7 °F 28.4 °F 53% 30.25 in 10.0 mi SSE 6.9 mph - N/A   Clear
8:55 PM 42.8 °F 38.6 °F 30.2 °F 61% 30.25 in 10.0 mi South 6.9 mph - N/A   Clear
9:15 PM 42.8 °F 39.3 °F 30.2 °F 61% 30.25 in 10.0 mi South 5.8 mph - N/A   Clear
9:35 PM 42.8 °F 38.6 °F 30.2 °F 61% 30.26 in 10.0 mi South 6.9 mph - N/A   Clear
10:15 PM 42.8 °F 38.0 °F 28.4 °F 57% 30.27 in 10.0 mi South 8.1 mph - N/A   Clear
10:35 PM 41.0 °F 36.4 °F 28.4 °F 61% 30.25 in 10.0 mi South 6.9 mph - N/A   Clear
11:15 PM 41.0 °F 36.4 °F 28.4 °F 61% 30.24 in 10.0 mi South 6.9 mph - N/A   Clear
11:35 PM 41.0 °F 37.1 °F 28.4 °F 61% 30.24 in 10.0 mi South 5.8 mph - N/A   Clear
11:55 PM 41.0 °F 37.1 °F 28.4 °F 61% 30.23 in 10.0 mi South 5.8 mph - N/A   Clear